EW8163 Weather Reports


Display with metric or nautical units.
time (UTC)temp
F
wind
direction
speed
MPH
gust
MPH
rain 1hr
in
rain 24hr
in
rain mn
in
humidity
%
barometer
mb
20260901085240 44 225 0.0 0.0 0.00 0.00 0.00 83 1019.2
20260901084239 44 225 0.0 0.0 0.00 0.00 0.00 83 1019.1
20260901082340 44 225 0.0 0.0 0.00 0.00 0.00 83 1019.2
20260901081439 44 225 0.0 0.0 0.00 0.00 0.00 83 1019.4
20260901075440 45 225 0.0 0.0 0.00 0.00 0.00 81 1019.5
20260901073540 45 225 0.0 0.0 0.00 0.00 0.00 80 1019.6
20260901072541 45 225 0.0 0.0 0.00 0.00 0.00 79 1019.6
20260901071639 45 225 0.0 0.0 0.00 0.00 0.00 79 1019.6
20260901065643 46 225 0.0 0.0 0.00 0.00 0.00 78 1019.5
20260901064643 46 225 0.0 0.0 0.00 0.00 0.00 77 1019.5
20260901062744 46 225 0.0 0.0 0.00 0.00 0.00 77 1019.5
20260901060844 47 225 0.0 0.0 0.00 0.00 0.00 76 1019.6
20260901060743 47 225 0.0 0.0 0.00 0.00 0.00 77 1019.6
20260901055741 47 225 0.0 0.0 0.00 0.00 0.00 76 1019.5
20260901054744 47 225 0.0 0.0 0.00 0.00 0.00 76 1019.3
20260901053744 48 225 0.0 0.0 0.00 0.00 0.00 74 1019.6
20260901052743 48 225 0.0 0.0 0.00 0.00 0.00 74 1019.5
20260901051842 49 225 0.0 0.0 0.00 0.00 0.00 72 1019.6
20260901051743 49 225 0.0 0.0 0.00 0.00 0.00 73 1019.6
20260901050743 49 225 0.0 0.0 0.00 0.00 0.00 71 1019.5
20260901045743 50 225 0.0 0.0 0.00 0.00 0.00 71 1019.5
20260901044742 50 225 0.0 0.0 0.00 0.00 0.00 70 1019.5
20260901043643 51 225 0.0 0.0 0.00 0.00 0.00 69 1019.6
20260901042643 52 225 0.0 0.0 0.00 0.00 0.00 68 1019.5
20260901041644 52 225 0.0 0.0 0.00 0.00 0.00 66 1019.5
20260901034742 53 225 0.0 0.0 0.00 0.00 0.00 66 1019.6
20260901033743 54 225 0.0 0.0 0.00 0.00 0.00 64 1019.5
20260901032842 55 225 0.0 0.0 0.00 0.00 0.00 63 1019.5
20260901032743 55 225 0.0 0.0 0.00 0.00 0.00 64 1019.3
20260901025942 57 225 0.0 0.0 0.00 0.00 0.00 62 1019.3
20260901024942 58 225 0.0 0.0 0.00 0.00 0.00 60 1019.2
20260901023941 59 225 0.0 0.0 0.00 0.00 0.00 60 1019.1
20260901022943 60 225 0.0 0.0 0.00 0.00 0.00 59 1019.1
20260901021943 61 225 0.0 0.0 0.00 0.00 0.00 57 1019.1
20260901021042 62 225 0.0 0.0 0.00 0.00 0.00 54 1018.9
20260901020042 64 225 0.0 0.0 0.00 0.00 0.00 52 1018.8
20260901015059 65 225 0.0 0.0 0.00 0.00 0.00 48 1018.8
20260901014042 67 225 0.0 0.0 0.00 0.00 0.00 44 1018.5
20260901013141 68 225 0.0 0.0 0.00 0.00 0.00 41 1018.7
20260901012143 69 225 0.0 0.0 0.00 0.00 0.00 40 1018.7
20260901011143 71 157 0.0 0.0 0.00 0.00 0.00 36 1018.6
20260901010144 73 180 0.0 0.0 0.00 0.00 0.00 35 1018.5
20260901005142 73 247 3.0 5.0 0.00 0.00 0.00 35 1018.5
20260901004143 74 212 1.0 4.0 0.00 0.00 0.00 34 1018.4
20260901004041 75 225 0.0 1.0 0.00 0.00 0.00 34 1018.3
20260901003041 76 247 1.0 3.0 0.00 0.00 0.00 33 1018.4
20260901002042 76 155 1.0 3.0 0.00 0.00 0.00 33 1018.5
20260901000044 75 292 0.0 0.0 0.00 0.00 0.00 34 1018.7
20260831235042 75 142 1.0 6.0 0.00 0.00 0.00 35 1018.7
20260831234041 75 288 1.0 4.0 0.00 0.00 0.00 35 1018.7
20260831233042 76 277 2.0 7.0 0.00 0.00 0.00 34 1018.9
20260831232141 76 305 2.0 4.0 0.00 0.00 0.00 34 1018.9
20260831230240 76 135 1.0 4.0 0.00 0.00 0.00 34 1018.8
20260831222343 76 264 3.0 6.0 0.00 0.00 0.00 34 1019.1
20260831221440 76 245 3.0 6.0 0.00 0.00 0.00 34 1019.1
20260831220441 76 206 1.0 3.0 0.00 0.00 0.00 32 1019.2
20260831215443 76 123 1.0 5.0 0.00 0.00 0.00 33 1019.4
20260831214541 76 300 3.0 6.0 0.00 0.00 0.00 34 1019.3
20260831213542 75 243 3.0 7.0 0.00 0.00 0.00 34 1019.3
20260831211640 75 299 1.0 3.0 0.00 0.00 0.00 33 1019.3
20260831210541 75 174 1.0 3.0 0.00 0.00 0.00 34 1019.4
20260831205543 76 193 4.0 8.0 0.00 0.00 0.00 34 1019.5
20260831205441 76 223 4.0 7.0 0.00 0.00 0.00 34 1019.4
20260831203541 75 165 3.0 5.0 0.00 0.00 0.00 33 1019.5
20260831203442 75 39 0.0 0.0 0.00 0.00 0.00 33 1019.4
20260831202442 76 181 2.0 4.0 0.00 0.00 0.00 33 1019.5
20260831201443 76 134 3.0 7.0 0.00 0.00 0.00 34 1019.3
20260831200541 76 222 2.0 9.0 0.00 0.00 0.00 34 1019.5
20260831195541 75 235 1.0 5.0 0.00 0.00 0.00 35 1019.6
20260831194544 75 247 1.0 4.0 0.00 0.00 0.00 36 1019.8
20260831193641 75 217 3.0 5.0 0.00 0.00 0.00 35 1019.6
20260831191642 74 192 2.0 6.0 0.00 0.00 0.00 36 1019.7
20260831190641 74 228 2.0 6.0 0.00 0.00 0.00 36 1019.8
20260831184643 74 227 2.0 8.0 0.00 0.00 0.00 37 1019.8
20260831183740 74 242 5.0 10.0 0.00 0.00 0.00 38 1019.6
20260831182741 74 346 2.0 6.0 0.00 0.00 0.00 37 1019.6
20260831181742 75 268 1.0 3.0 0.00 0.00 0.00 36 1019.6
20260831180743 76 29 0.0 2.0 0.00 0.00 0.00 36 1019.5
20260831175840 74 350 1.0 3.0 0.00 0.00 0.00 37 1019.5
20260831174856 75 4 1.0 3.0 0.00 0.00 0.00 36 1019.5
20260831173041 75 156 1.0 5.0 0.00 0.00 0.00 37 1019.5
20260831172041 74 45 1.0 2.0 0.00 0.00 0.00 38 1019.5
20260831171042 73 84 1.0 2.0 0.00 0.00 0.00 39 1019.3
20260831165044 71 7 3.0 4.0 0.00 0.00 0.00 41 1019.4
20260831164942 71 20 1.0 3.0 0.00 0.00 0.00 42 1019.4
20260831162942 70 67 0.0 0.0 0.00 0.00 0.00 44 1019.5
20260831162040 69 9 0.0 2.0 0.00 0.00 0.00 51 1019.4
20260831161043 66 135 0.0 0.0 0.00 0.00 0.00 61 1019.6
20260831160041 63 135 0.0 0.0 0.00 0.00 0.00 66 1019.6
20260831155942 63 135 0.0 0.0 0.00 0.00 0.00 67 1019.6
20260831155841 63 135 0.0 0.0 0.00 0.00 0.00 67 1019.6
20260831154858 61 135 0.0 0.0 0.00 0.00 0.00 74 1019.7
20260831153940 58 135 0.0 0.0 0.00 0.00 0.00 73 1019.7
20260831152941 56 135 0.0 0.0 0.00 0.00 0.00 76 1019.7
20260831151941 54 135 0.0 0.0 0.00 0.00 0.00 81 1019.8
20260831150042 49 135 0.0 0.0 0.00 0.00 0.00 95 1019.5
20260831145042 45 135 0.0 0.0 0.00 0.00 0.00 97 1019.5
20260831144041 43 135 0.0 0.0 0.00 0.00 0.00 98 1019.3
20260831143943 43 135 0.0 0.0 0.00 0.00 0.00 97 1019.3
20260831143041 43 135 0.0 0.0 0.00 0.00 0.00 97 1019.3
20260831142042 43 135 0.0 0.0 0.00 0.00 0.00 96 1019.3
20260831141140 42 135 0.0 0.0 0.00 0.00 0.00 97 1019.2
20260831140142 42 135 0.0 0.0 0.00 0.00 0.00 96 1019.1
20260831135142 42 135 0.0 0.0 0.00 0.00 0.00 96 1019.1
20260831133241 42 135 0.0 0.0 0.00 0.00 0.00 96 1018.9
20260831132340 42 135 0.0 0.0 0.00 0.00 0.00 96 1018.9
20260831132243 42 135 0.0 0.0 0.00 0.00 0.00 96 1019.0
20260831131243 42 135 0.0 0.0 0.00 0.00 0.00 96 1018.9
20260831130339 42 135 0.0 0.0 0.00 0.00 0.00 96 1019.0
20260831125341 42 135 0.0 0.0 0.00 0.00 0.00 96 1019.1
20260831124341 43 135 0.0 0.0 0.00 0.00 0.00 96 1019.0
20260831123340 43 135 0.0 0.0 0.00 0.00 0.00 95 1019.0
20260831122439 43 135 0.0 0.0 0.00 0.00 0.00 95 1018.9
20260831122339 43 135 0.0 0.0 0.00 0.00 0.00 95 1018.9
20260831115242 43 135 0.0 0.0 0.00 0.00 0.00 94 1019.0
20260831115141 43 135 0.0 0.0 0.00 0.00 0.00 95 1019.0
20260831113241 43 135 0.0 0.0 0.00 0.00 0.00 94 1019.2
20260831112339 43 135 0.0 0.0 0.00 0.00 0.00 94 1019.3
20260831111343 44 135 0.0 0.0 0.00 0.00 0.00 93 1019.3
20260831110339 44 135 0.0 0.0 0.00 0.00 0.00 93 1019.2
20260831105342 44 135 0.0 0.0 0.00 0.00 0.00 92 1019.3
20260831104341 44 135 0.0 0.0 0.00 0.00 0.00 93 1019.4
20260831101442 45 135 0.0 0.0 0.00 0.00 0.00 92 1019.4
20260831100539 45 135 0.0 0.0 0.00 0.00 0.00 91 1019.3
20260831100440 45 135 0.0 0.0 0.00 0.00 0.00 90 1019.4
20260831095442 45 135 0.0 0.0 0.00 0.00 0.00 90 1019.3
20260831094442 45 135 0.0 0.0 0.00 0.00 0.00 91 1019.3
20260831093541 45 135 0.0 0.0 0.00 0.00 0.00 90 1019.3
20260831092640 45 135 0.0 0.0 0.00 0.00 0.00 90 1019.3
20260831092543 45 135 0.0 0.0 0.00 0.00 0.00 90 1019.3
20260831091541 46 135 0.0 0.0 0.00 0.00 0.00 89 1019.1
20260831091442 46 135 0.0 0.0 0.00 0.00 0.00 90 1019.1
20260831090441 46 135 0.0 0.0 0.00 0.00 0.00 89 1019.2